Location: Shades State Park
(39.9310°N, 87.0690°W)
Time: 02:39:21
(UTC-05:00)

ISS - Visible Passes

Search period start: 28 February 2017 00:00
Search period end: 10 March 2017 00:00
Orbit: 399 x 408 km, 51.6° (Epoch: 28 February)

Date Brightness Start Highest point End Pass type
(mag) Time Alt. Az. Time Alt. Az. Time Alt. Az.
28 Feb -1.5 06:55:49 10° SSW 06:58:50 33° SE 07:01:50 10° ENE visible
01 Mar -0.5 06:04:10 10° S 06:06:26 17° SE 06:08:42 10° E visible
02 Mar -3.3 06:46:44 10° SW 06:50:02 87° SE 06:53:20 10° NE visible
03 Mar -2.2 05:55:34 20° SSW 05:57:29 42° SE 06:00:38 10° ENE visible
04 Mar -0.9 05:05:34 20° ESE 05:05:34 20° ESE 05:07:37 10° E visible
04 Mar -2.7 06:38:14 10° WSW 06:41:19 41° NNW 06:44:28 10° NE visible
05 Mar -3.4 05:48:04 56° WSW 05:48:39 76° NW 05:51:57 10° NE visible
06 Mar -0.9 04:57:45 24° ENE 04:57:45 24° ENE 04:59:17 10° ENE visible
06 Mar -1.7 06:30:24 12° WNW 06:32:41 23° NNW 06:35:24 10° NNE visible
07 Mar -2.4 05:39:59 34° NNW 05:39:59 34° NNW 05:42:58 10° NE visible
08 Mar -0.5 04:49:28 18° NE 04:49:28 18° NE 04:50:26 10° NE visible
08 Mar -1.1 06:22:06 10° NW 06:24:09 15° NNW 06:26:12 10° NNE visible
09 Mar -1.4 05:31:31 20° NNW 05:31:31 20° NNW 05:33:48 10° NNE visible
